QPF
0.02 0.02 0.02 0.01 0.01 0.00 0.00 0.01 0.01 0.01 0.01 0.02 0.01 0.01 0.00 0.00 0.00 0.01 0.00 0.00 0.01 0.01 0.00 0.01 0.01 0.02 0.03 0.05 0.05 0.07 0.09 0.12 0.13 0.15 0.20 0.21 0.18 0.17 0.20 0.24 0.24 0.23 0.27 0.30
0.02 0.02 0.02 0.01 0.00 0.00 0.00 0.01 0.01 0.01 0.01 0.02 0.01 0.00 0.00 0.00 0.00 0.00 0.00 0.00 0.00 0.00 0.00 0.01 0.02 0.02 0.03 0.04 0.04 0.06 0.08 0.11 0.13 0.15 0.19 0.20 0.19 0.17 0.19 0.23 0.27 0.27 0.29 0.34
0.01 0.01 0.01 0.01 0.01 0.01 0.01 0.01 0.01 0.01 0.01 0.02 0.01 0.01 0.00 0.00 0.00 0.00 0.00 0.00 0.00 0.00 0.00 0.01 0.01 0.02 0.02 0.03 0.04 0.05 0.07 0.10 0.12 0.14 0.21 0.25 0.26 0.25 0.23 0.25 0.27 0.29 0.30 0.32
0.00 0.00 0.00 0.01 0.01 0.01 0.01 0.01 0.01 0.01 0.01 0.02 0.01 0.01 0.00 0.00 0.00 0.00 0.00 0.00 0.00 0.00 0.00 0.01 0.01 0.01 0.01 0.02 0.03 0.04 0.07 0.10 0.13 0.14 0.18 0.23 0.24 0.26 0.23 0.22 0.26 0.27 0.29 0.31
0.00 0.00 0.00 0.00 0.00 0.01 0.01 0.00 0.01 0.01 0.02 0.02 0.01 0.02 0.01 0.01 0.01 0.00 0.00 0.00 0.00 0.00 0.00 0.01 0.01 0.01 0.01 0.01 0.02 0.03 0.06 0.11 0.14 0.17 0.18 0.19 0.20 0.21 0.23 0.24 0.26 0.30 0.29 0.30
0.00 0.00 0.00 0.00 0.00 0.00 0.00 0.00 0.00 0.01 0.02 0.02 0.01 0.03 0.02 0.02 0.01 0.00 0.00 0.00 0.00 0.00 0.01 0.01 0.01 0.01 0.01 0.01 0.02 0.03 0.05 0.10 0.14 0.16 0.21 0.20 0.18 0.18 0.21 0.25 0.27 0.31 0.32 0.30
0.00 0.00 0.00 0.00 0.00 0.00 0.00 0.01 0.02 0.01 0.01 0.01 0.01 0.02 0.04 0.02 0.01 0.01 0.00 0.00 0.00 0.01 0.01 0.01 0.02 0.02 0.02 0.02 0.02 0.03 0.05 0.07 0.13 0.16 0.19 0.20 0.20 0.17 0.15 0.18 0.26 0.29 0.33 0.33
0.00 0.00 0.00 0.00 0.00 0.00 0.00 0.01 0.03 0.02 0.01 0.00 0.01 0.03 0.04 0.02 0.01 0.00 0.00 0.00 0.00 0.00 0.01 0.02 0.02 0.02 0.03 0.03 0.03 0.04 0.05 0.07 0.11 0.14 0.16 0.19 0.22 0.22 0.17 0.15 0.19 0.25 0.29 0.31
0.00 0.00 0.00 0.00 0.00 0.00 0.00 0.00 0.00 0.02 0.02 0.01 0.01 0.02 0.02 0.01 0.01 0.00 0.00 0.00 0.00 0.00 0.01 0.02 0.02 0.02 0.03 0.04 0.04 0.05 0.06 0.09 0.10 0.12 0.13 0.16 0.21 0.24 0.21 0.18 0.18 0.20 0.22 0.26
0.01 0.01 0.00 0.00 0.00 0.00 0.00 0.00 0.00 0.02 0.03 0.02 0.01 0.02 0.03 0.01 0.01 0.01 0.00 0.00 0.01 0.01 0.01 0.02 0.03 0.03 0.03 0.03 0.05 0.07 0.06 0.09 0.12 0.11 0.13 0.16 0.18 0.22 0.24 0.22 0.21 0.20 0.20 0.22
0.01 0.03 0.02 0.00 0.00 0.00 0.00 0.00 0.01 0.01 0.02 0.03 0.02 0.02 0.03 0.01 0.01 0.01 0.01 0.01 0.01 0.02 0.02 0.02 0.03 0.05 0.05 0.04 0.04 0.06 0.07 0.08 0.12 0.14 0.14 0.16 0.19 0.20 0.22 0.22 0.20 0.19 0.19 0.21
0.01 0.03 0.03 0.00 0.00 0.00 0.00 0.01 0.01 0.02 0.02 0.03 0.03 0.01 0.01 0.02 0.01 0.00 0.00 0.01 0.01 0.02 0.02 0.02 0.03 0.05 0.06 0.06 0.05 0.05 0.06 0.07 0.09 0.14 0.19 0.18 0.20 0.23 0.22 0.19 0.17 0.17 0.17 0.19
0.03 0.06 0.05 0.02 0.01 0.00 0.00 0.00 0.01 0.01 0.04 0.04 0.04 0.01 0.01 0.01 0.01 0.00 0.00 0.00 0.00 0.01 0.02 0.02 0.02 0.04 0.05 0.06 0.07 0.07 0.05 0.05 0.06 0.10 0.17 0.24 0.26 0.26 0.25 0.22 0.19 0.16 0.15 0.15
0.06 0.09 0.05 0.02 0.01 0.01 0.01 0.01 0.00 0.02 0.05 0.03 0.01 0.00 0.00 0.00 0.00 0.00 0.00 0.00 0.00 0.01 0.01 0.02 0.02 0.03 0.04 0.04 0.07 0.08 0.06 0.04 0.04 0.06 0.11 0.20 0.27 0.30 0.29 0.24 0.21 0.19 0.14 0.12
0.07 0.10 0.03 0.01 0.00 0.01 0.01 0.01 0.00 0.01 0.01 0.02 0.01 0.00 0.00 0.00 0.00 0.00 0.00 0.00 0.00 0.00 0.01 0.01 0.02 0.02 0.03 0.03 0.05 0.06 0.06 0.04 0.03 0.05 0.09 0.15 0.22 0.28 0.32 0.27 0.22 0.19 0.15 0.10
0.05 0.08 0.04 0.02 0.01 0.01 0.01 0.01 0.01 0.01 0.01 0.01 0.01 0.00 0.00 0.00 0.00 0.00 0.00 0.00 0.00 0.00 0.01 0.01 0.01 0.02 0.02 0.02 0.03 0.04 0.05 0.04 0.04 0.05 0.07 0.11 0.16 0.21 0.31 0.32 0.26 0.21 0.15 0.10
0.06 0.07 0.08 0.05 0.01 0.02 0.02 0.01 0.01 0.01 0.01 0.01 0.01 0.00 0.00 0.00 0.00 0.00 0.00 0.00 0.00 0.00 0.00 0.01 0.01 0.01 0.02 0.02 0.02 0.03 0.05 0.05 0.05 0.04 0.05 0.09 0.11 0.15 0.22 0.31 0.31 0.25 0.18 0.12
0.04 0.06 0.10 0.08 0.04 0.04 0.01 0.01 0.01 0.01 0.02 0.02 0.01 0.01 0.00 0.00 0.00 0.00 0.00 0.00 0.00 0.00 0.00 0.01 0.01 0.01 0.01 0.01 0.02 0.03 0.04 0.05 0.05 0.04 0.04 0.06 0.07 0.10 0.15 0.26 0.31 0.28 0.22 0.16
0.02 0.05 0.11 0.11 0.07 0.02 0.00 0.01 0.01 0.01 0.02 0.02 0.01 0.01 0.01 0.00 0.00 0.00 0.00 0.00 0.00 0.00 0.00 0.01 0.01 0.01 0.01 0.01 0.02 0.03 0.03 0.05 0.04 0.03 0.04 0.04 0.04 0.06 0.10 0.18 0.28 0.26 0.25 0.19
0.01 0.05 0.11 0.11 0.08 0.03 0.01 0.00 0.00 0.00 0.01 0.01 0.01 0.01 0.01 0.01 0.00 0.00 0.00 0.00 0.00 0.00 0.00 0.01 0.01 0.01 0.01 0.01 0.02 0.03 0.03 0.03 0.03 0.03 0.03 0.02 0.02 0.03 0.06 0.11 0.19 0.24 0.23 0.20
0.02 0.06 0.08 0.06 0.06 0.02 0.01 0.00 0.00 0.01 0.01 0.01 0.02 0.02 0.02 0.01 0.01 0.01 0.01 0.01 0.00 0.00 0.00 0.01 0.01 0.01 0.01 0.01 0.03 0.04 0.03 0.02 0.02 0.02 0.03 0.02 0.01 0.02 0.04 0.07 0.12 0.21 0.23 0.21
0.01 0.02 0.02 0.03 0.06 0.03 0.01 0.01 0.01 0.02 0.02 0.02 0.02 0.02 0.02 0.01 0.01 0.01 0.01 0.00 0.00 0.00 0.00 0.01 0.01 0.01 0.01 0.01 0.04 0.05 0.03 0.03 0.03 0.02 0.03 0.02 0.01 0.02 0.03 0.05 0.09 0.15 0.20 0.21
0.00 0.01 0.01 0.01 0.01 0.00 0.00 0.01 0.02 0.02 0.02 0.02 0.02 0.02 0.01 0.01 0.01 0.01 0.00 0.00 0.00 0.00 0.01 0.01 0.01 0.01 0.01 0.02 0.04 0.05 0.04 0.04 0.03 0.02 0.02 0.02 0.02 0.02 0.03 0.04 0.07 0.12 0.14 0.18
0.00 0.00 0.01 0.01 0.01 0.00 0.00 0.01 0.02 0.02 0.02 0.03 0.03 0.02 0.02 0.02 0.01 0.01 0.00 0.00 0.00 0.00 0.01 0.01 0.01 0.01 0.01 0.03 0.04 0.04 0.05 0.05 0.04 0.03 0.03 0.03 0.03 0.03 0.03 0.04 0.06 0.10 0.10 0.12
0.00 0.01 0.01 0.01 0.00 0.00 0.00 0.00 0.01 0.01 0.02 0.02 0.03 0.02 0.02 0.01 0.01 0.00 0.00 0.00 0.00 0.00 0.01 0.01 0.01 0.01 0.02 0.03 0.04 0.04 0.05 0.05 0.04 0.03 0.03 0.03 0.04 0.04 0.03 0.05 0.06 0.08 0.08 0.08
0.00 0.00 0.01 0.01 0.01 0.01 0.01 0.00 0.00 0.00 0.01 0.01 0.02 0.01 0.01 0.01 0.00 0.00 0.00 0.00 0.00 0.00 0.01 0.01 0.01 0.01 0.02 0.03 0.03 0.04 0.04 0.04 0.04 0.04 0.03 0.03 0.04 0.05 0.05 0.05 0.07 0.09 0.09 0.07
MSLP
1017.59 1017.63 1017.62 1017.57 1017.50 1017.41 1017.32 1017.20 1017.03 1016.77 1016.40 1015.90 1015.28 1014.55 1013.74 1012.92 1012.15 1011.46 1010.89 1010.47 1010.18 1010.01 1009.94 1009.93 1009.96 1010.01 1010.07 1010.15 1010.25 1010.36 1010.47 1010.55 1010.57 1010.48 1010.25 1009.84 1009.25 1008.48 1007.56 1006.58 1005.60 1004.70 1003.98 1003.49
1017.70 1017.59 1017.45 1017.32 1017.23 1017.21 1017.24 1017.29 1017.30 1017.21 1016.96 1016.50 1015.84 1014.99 1014.01 1012.99 1012.00 1011.12 1010.42 1009.90 1009.58 1009.43 1009.40 1009.45 1009.53 1009.63 1009.72 1009.82 1009.93 1010.05 1010.19 1010.31 1010.38 1010.36 1010.19 1009.84 1009.29 1008.54 1007.64 1006.66 1005.67 1004.76 1004.03 1003.52
1017.62 1017.34 1017.07 1016.87 1016.81 1016.90 1017.11 1017.38 1017.63 1017.74 1017.63 1017.24 1016.54 1015.57 1014.40 1013.15 1011.94 1010.86 1010.00 1009.39 1009.04 1008.90 1008.92 1009.04 1009.18 1009.32 1009.44 1009.55 1009.65 1009.77 1009.91 1010.04 1010.15 1010.18 1010.08 1009.80 1009.32 1008.63 1007.78 1006.83 1005.85 1004.95 1004.21 1003.68
1017.37 1016.95 1016.58 1016.36 1016.37 1016.60 1017.03 1017.56 1018.06 1018.39 1018.42 1018.08 1017.34 1016.24 1014.88 1013.40 1011.95 1010.68 1009.66 1008.97 1008.59 1008.48 1008.56 1008.74 1008.95 1009.13 1009.27 1009.37 1009.45 1009.53 1009.64 1009.77 1009.89 1009.95 1009.91 1009.71 1009.32 1008.72 1007.94 1007.05 1006.12 1005.24 1004.49 1003.94
1017.07 1016.54 1016.12 1015.93 1016.04 1016.45 1017.10 1017.88 1018.62 1019.14 1019.29 1018.98 1018.18 1016.95 1015.39 1013.69 1012.02 1010.56 1009.41 1008.64 1008.25 1008.17 1008.31 1008.57 1008.84 1009.06 1009.20 1009.27 1009.30 1009.32 1009.38 1009.47 1009.57 1009.66 1009.67 1009.55 1009.26 1008.76 1008.09 1007.29 1006.42 1005.57 1004.82 1004.24
1016.82 1016.25 1015.84 1015.72 1015.94 1016.53 1017.39 1018.38 1019.30 1019.96 1020.18 1019.86 1018.97 1017.59 1015.85 1013.94 1012.08 1010.46 1009.21 1008.40 1008.00 1007.96 1008.17 1008.49 1008.81 1009.06 1009.19 1009.22 1009.18 1009.12 1009.10 1009.13 1009.20 1009.29 1009.35 1009.30 1009.11 1008.73 1008.18 1007.47 1006.68 1005.88 1005.14 1004.52
1016.72 1016.17 1015.81 1015.78 1016.13 1016.86 1017.88 1019.00 1020.03 1020.74 1020.96 1020.57 1019.58 1018.04 1016.14 1014.06 1012.07 1010.34 1009.03 1008.19 1007.82 1007.83 1008.09 1008.47 1008.82 1009.08 1009.18 1009.16 1009.04 1008.89 1008.78 1008.73 1008.76 1008.85 1008.93 1008.96 1008.86 1008.60 1008.16 1007.57 1006.86 1006.11 1005.38 1004.73
1016.80 1016.31 1016.03 1016.09 1016.55 1017.37 1018.46 1019.63 1020.65 1021.32 1021.46 1020.97 1019.85 1018.18 1016.14 1013.96 1011.89 1010.12 1008.79 1007.98 1007.64 1007.70 1008.01 1008.42 1008.80 1009.04 1009.11 1009.02 1008.83 1008.59 1008.40 1008.28 1008.27 1008.34 1008.44 1008.52 1008.51 1008.36 1008.03 1007.53 1006.91 1006.21 1005.49 1004.83
1017.00 1016.59 1016.40 1016.54 1017.05 1017.89 1018.96 1020.06 1020.99 1021.53 1021.52 1020.89 1019.64 1017.88 1015.77 1013.56 1011.49 1009.74 1008.47 1007.70 1007.42 1007.53 1007.87 1008.30 1008.67 1008.89 1008.92 1008.78 1008.52 1008.22 1007.95 1007.78 1007.74 1007.79 1007.91 1008.04 1008.09 1008.01 1007.78 1007.37 1006.81 1006.16 1005.46 1004.78
1017.18 1016.86 1016.75 1016.93 1017.43 1018.21 1019.16 1020.10 1020.84 1021.18 1021.00 1020.22 1018.87 1017.06 1014.97 1012.81 1010.83 1009.19 1008.01 1007.34 1007.13 1007.28 1007.64 1008.06 1008.41 1008.60 1008.59 1008.41 1008.11 1007.76 1007.46 1007.27 1007.20 1007.25 1007.38 1007.53 1007.62 1007.60 1007.43 1007.08 1006.58 1005.96 1005.27 1004.58
1017.17 1016.92 1016.85 1017.02 1017.45 1018.09 1018.85 1019.56 1020.05 1020.16 1019.78 1018.88 1017.48 1015.71 1013.72 1011.72 1009.91 1008.45 1007.43 1006.88 1006.75 1006.93 1007.30 1007.70 1008.01 1008.16 1008.13 1007.92 1007.61 1007.27 1006.97 1006.78 1006.71 1006.76 1006.89 1007.05 1007.16 1007.16 1007.01 1006.69 1006.22 1005.62 1004.95 1004.25
1016.83 1016.61 1016.53 1016.64 1016.95 1017.40 1017.92 1018.36 1018.58 1018.46 1017.92 1016.95 1015.58 1013.92 1012.12 1010.36 1008.80 1007.58 1006.76 1006.36 1006.31 1006.52 1006.88 1007.24 1007.51 1007.63 1007.58 1007.38 1007.09 1006.78 1006.52 1006.35 1006.30 1006.35 1006.48 1006.62 1006.71 1006.71 1006.56 1006.24 1005.78 1005.19 1004.52 1003.82
1016.07 1015.84 1015.72 1015.73 1015.88 1016.12 1016.38 1016.54 1016.51 1016.20 1015.55 1014.57 1013.30 1011.83 1010.30 1008.85 1007.60 1006.66 1006.07 1005.81 1005.85 1006.08 1006.41 1006.73 1006.96 1007.05 1007.00 1006.83 1006.59 1006.34 1006.13 1006.00 1005.98 1006.03 1006.14 1006.25 1006.30 1006.26 1006.08 1005.75 1005.29 1004.70 1004.04 1003.35
1014.93 1014.66 1014.46 1014.35 1014.32 1014.34 1014.35 1014.27 1014.03 1013.58 1012.88 1011.96 1010.85 1009.64 1008.43 1007.33 1006.42 1005.77 1005.40 1005.30 1005.40 1005.65 1005.95 1006.23 1006.42 1006.49 1006.45 1006.32 1006.14 1005.96 1005.82 1005.74 1005.73 1005.78 1005.85 1005.91 1005.90 1005.80 1005.58 1005.23 1004.76 1004.18 1003.53 1002.84
1013.57 1013.22 1012.92 1012.67 1012.46 1012.27 1012.06 1011.78 1011.39 1010.86 1010.18 1009.37 1008.47 1007.56 1006.68 1005.93 1005.35 1004.98 1004.82 1004.85 1005.02 1005.27 1005.54 1005.76 1005.92 1005.98 1005.96 1005.88 1005.76 1005.65 1005.57 1005.53 1005.52 1005.55 1005.56 1005.55 1005.48 1005.31 1005.04 1004.67 1004.19 1003.63 1003.00 1002.34
1012.18 1011.74 1011.32 1010.92 1010.55 1010.17 1009.78 1009.35 1008.86 1008.30 1007.68 1007.03 1006.36 1005.73 1005.19 1004.76 1004.48 1004.35 1004.37 1004.50 1004.71 1004.95 1005.18 1005.37 1005.49 1005.55 1005.54 1005.50 1005.44 1005.38 1005.34 1005.31 1005.29 1005.27 1005.22 1005.13 1004.98 1004.76 1004.45 1004.06 1003.59 1003.05 1002.46 1001.84
1010.97 1010.42 1009.88 1009.34 1008.81 1008.28 1007.75 1007.21 1006.67 1006.13 1005.60 1005.10 1004.66 1004.29 1004.03 1003.87 1003.83 1003.90 1004.04 1004.25 1004.47 1004.70 1004.89 1005.04 1005.13 1005.18 1005.19 1005.18 1005.15 1005.12 1005.08 1005.03 1004.97 1004.88 1004.76 1004.60 1004.38 1004.10 1003.77 1003.38 1002.95 1002.45 1001.91 1001.33
1010.09 1009.43 1008.75 1008.08 1007.41 1006.76 1006.14 1005.54 1004.98 1004.48 1004.04 1003.69 1003.43 1003.28 1003.23 1003.28 1003.41 1003.60 1003.83 1004.07 1004.29 1004.49 1004.64 1004.76 1004.83 1004.86 1004.87 1004.86 1004.84 1004.80 1004.73 1004.64 1004.52 1004.36 1004.16 1003.92 1003.64 1003.34 1003.01 1002.65 1002.25 1001.82 1001.33 1000.80
1009.56 1008.78 1007.98 1007.19 1006.42 1005.67 1004.98 1004.35 1003.80 1003.34 1003.00 1002.77 1002.65 1002.65 1002.75 1002.93 1003.16 1003.42 1003.69 1003.93 1004.14 1004.31 1004.43 1004.51 1004.55 1004.56 1004.56 1004.53 1004.48 1004.40 1004.28 1004.12 1003.92 1003.68 1003.41 1003.11 1002.80 1002.49 1002.18 1001.85 1001.52 1001.14 1000.71 1000.22
1009.26 1008.38 1007.48 1006.59 1005.74 1004.94 1004.21 1003.57 1003.05 1002.65 1002.38 1002.24 1002.23 1002.32 1002.51 1002.76 1003.04 1003.32 1003.58 1003.81 1004.00 1004.13 1004.22 1004.26 1004.27 1004.26 1004.22 1004.14 1004.04 1003.89 1003.70 1003.46 1003.18 1002.87 1002.54 1002.21 1001.89 1001.59 1001.31 1001.04 1000.75 1000.43 1000.05 999.59
1009.00 1008.05 1007.08 1006.14 1005.24 1004.42 1003.70 1003.09 1002.61 1002.27 1002.07 1002.00 1002.05 1002.20 1002.42 1002.69 1002.98 1003.25 1003.50 1003.69 1003.84 1003.94 1003.99 1004.00 1003.97 1003.92 1003.82 1003.69 1003.51 1003.29 1003.01 1002.69 1002.34 1001.98 1001.61 1001.27 1000.96 1000.69 1000.45 1000.23 999.99 999.71 999.35 998.89
1008.59 1007.60 1006.62 1005.67 1004.78 1003.99 1003.31 1002.76 1002.35 1002.08 1001.94 1001.93 1002.02 1002.20 1002.43 1002.69 1002.96 1003.20 1003.40 1003.57 1003.68 1003.74 1003.75 1003.71 1003.64 1003.52 1003.36 1003.15 1002.89 1002.58 1002.23 1001.85 1001.44 1001.05 1000.68 1000.35 1000.07 999.84 999.64 999.46 999.24 998.97 998.61 998.13
1007.88 1006.92 1005.97 1005.07 1004.26 1003.54 1002.95 1002.50 1002.17 1001.99 1001.92 1001.96 1002.08 1002.26 1002.49 1002.72 1002.95 1003.15 1003.32 1003.43 1003.49 1003.51 1003.47 1003.38 1003.24 1003.06 1002.82 1002.52 1002.18 1001.80 1001.38 1000.95 1000.52 1000.12 999.77 999.48 999.24 999.06 998.90 998.73 998.52 998.23 997.84 997.32
1006.84 1005.97 1005.13 1004.35 1003.66 1003.07 1002.61 1002.28 1002.07 1001.97 1001.97 1002.06 1002.20 1002.39 1002.59 1002.79 1002.97 1003.12 1003.23 1003.29 1003.29 1003.25 1003.15 1002.99 1002.78 1002.51 1002.18 1001.80 1001.39 1000.94 1000.48 1000.02 999.60 999.23 998.92 998.68 998.50 998.35 998.22 998.05 997.82 997.49 997.04 996.47
1005.60 1004.88 1004.20 1003.58 1003.06 1002.64 1002.34 1002.15 1002.06 1002.06 1002.13 1002.25 1002.41 1002.58 1002.75 1002.90 1003.03 1003.11 1003.15 1003.14 1003.07 1002.95 1002.76 1002.52 1002.22 1001.86 1001.45 1000.99 1000.51 1000.01 999.53 999.08 998.68 998.36 998.11 997.93 997.80 997.69 997.57 997.39 997.12 996.73 996.21 995.58
1004.36 1003.84 1003.36 1002.95 1002.63 1002.40 1002.25 1002.20 1002.23 1002.31 1002.43 1002.57 1002.72 1002.86 1002.98 1003.07 1003.12 1003.12 1003.07 1002.96 1002.81 1002.59 1002.31 1001.97 1001.56 1001.11 1000.61 1000.09 999.55 999.02 998.54 998.11 997.76 997.50 997.31 997.19 997.10 997.02 996.90 996.69 996.37 995.92 995.35 994.66
Thickness
5567 5554 5549 5550 5548 5549 5544 5539 5535 5544 5551 5545 5547 5557 5566 5567 5561 5558 5558 5558 5561 5565 5569 5569 5568 5569 5570 5572 5575 5578 5582 5586 5590 5595 5599 5605 5611 5617 5624 5630 5636 5640 5644 5647
5552 5547 5554 5554 5549 5544 5538 5531 5531 5539 5543 5540 5539 5550 5559 5558 5554 5553 5551 5550 5550 5554 5556 5557 5557 5556 5556 5557 5561 5566 5570 5574 5579 5584 5589 5594 5599 5606 5613 5619 5625 5630 5635 5638
5548 5553 5557 5551 5543 5537 5533 5526 5525 5526 5528 5526 5521 5533 5546 5551 5548 5547 5545 5543 5540 5543 5543 5545 5545 5545 5544 5545 5549 5554 5559 5564 5568 5573 5577 5582 5587 5592 5599 5606 5613 5620 5625 5630
5544 5550 5550 5544 5537 5532 5525 5531 5526 5520 5504 5497 5503 5499 5531 5533 5534 5535 5533 5529 5529 5531 5533 5534 5535 5534 5533 5536 5538 5542 5547 5553 5558 5563 5566 5570 5575 5582 5590 5596 5603 5610 5616 5622
5536 5542 5539 5535 5535 5531 5522 5524 5517 5510 5496 5484 5488 5476 5511 5517 5519 5524 5521 5519 5520 5521 5522 5524 5525 5525 5526 5526 5528 5533 5538 5543 5548 5553 5558 5562 5567 5573 5579 5585 5592 5599 5606 5614
5530 5535 5533 5531 5533 5527 5518 5507 5500 5485 5475 5468 5480 5471 5491 5499 5509 5514 5514 5511 5510 5511 5512 5514 5515 5516 5516 5517 5519 5523 5528 5534 5539 5545 5550 5554 5559 5565 5570 5576 5582 5589 5596 5604
5516 5524 5528 5527 5521 5514 5502 5479 5462 5453 5442 5458 5479 5474 5489 5503 5504 5504 5503 5501 5500 5500 5501 5502 5504 5504 5506 5508 5511 5514 5519 5526 5531 5536 5542 5548 5551 5557 5564 5570 5575 5582 5588 5595
5494 5503 5518 5517 5510 5499 5489 5474 5453 5443 5439 5456 5469 5473 5492 5501 5498 5497 5495 5494 5493 5492 5491 5492 5493 5493 5495 5498 5502 5505 5509 5515 5522 5527 5533 5539 5544 5549 5557 5564 5570 5575 5582 5590
5483 5490 5509 5510 5506 5496 5480 5465 5460 5439 5429 5429 5451 5463 5480 5493 5490 5489 5486 5483 5480 5481 5482 5482 5484 5485 5486 5489 5493 5496 5500 5506 5512 5518 5525 5531 5536 5542 5550 5557 5563 5569 5576 5584
5484 5477 5490 5494 5495 5489 5478 5463 5439 5428 5419 5425 5440 5450 5465 5475 5478 5478 5476 5473 5471 5472 5473 5474 5475 5477 5479 5482 5485 5489 5493 5498 5505 5511 5517 5524 5529 5535 5543 5550 5556 5563 5571 5577
5477 5464 5470 5472 5475 5471 5464 5454 5443 5425 5415 5414 5420 5457 5477 5468 5470 5466 5465 5464 5463 5463 5463 5464 5466 5469 5472 5475 5477 5481 5485 5490 5496 5503 5509 5514 5520 5528 5535 5542 5550 5558 5565 5572
5469 5453 5448 5456 5469 5469 5461 5452 5438 5422 5414 5405 5411 5453 5479 5468 5463 5459 5456 5456 5456 5456 5455 5456 5458 5459 5462 5466 5469 5473 5478 5483 5489 5495 5501 5507 5514 5521 5528 5536 5544 5553 5560 5567
5459 5443 5437 5450 5452 5449 5443 5441 5435 5424 5414 5410 5410 5444 5468 5457 5454 5452 5448 5447 5448 5448 5448 5449 5449 5451 5454 5458 5462 5467 5472 5477 5482 5487 5493 5500 5506 5513 5522 5531 5540 5549 5555 5562
5458 5437 5438 5448 5453 5436 5429 5430 5425 5414 5409 5412 5423 5440 5455 5450 5446 5445 5442 5440 5440 5440 5441 5442 5442 5444 5447 5450 5455 5460 5465 5469 5474 5480 5486 5493 5500 5508 5516 5527 5535 5544 5551 5558
5447 5437 5432 5441 5446 5437 5433 5434 5427 5417 5417 5412 5430 5434 5447 5446 5439 5436 5434 5433 5434 5434 5435 5436 5437 5438 5441 5444 5448 5453 5457 5462 5467 5472 5479 5487 5495 5503 5511 5520 5529 5538 5546 5554
5435 5431 5427 5432 5438 5430 5430 5439 5435 5430 5426 5422 5424 5432 5444 5438 5432 5429 5427 5426 5427 5427 5429 5431 5432 5434 5436 5439 5443 5447 5452 5456 5461 5466 5474 5481 5488 5496 5505 5514 5523 5532 5540 5547
5426 5421 5416 5422 5424 5415 5424 5443 5438 5431 5429 5423 5420 5432 5434 5427 5426 5425 5423 5421 5420 5421 5422 5423 5424 5427 5430 5433 5437 5441 5446 5451 5456 5462 5469 5477 5484 5491 5500 5509 5517 5527 5536 5543
5422 5414 5409 5407 5400 5404 5444 5442 5437 5431 5433 5428 5425 5425 5422 5420 5419 5418 5416 5412 5412 5414 5415 5417 5418 5421 5424 5427 5431 5436 5441 5445 5451 5458 5465 5472 5479 5487 5495 5503 5512 5522 5531 5538
5423 5411 5403 5397 5392 5405 5428 5432 5425 5417 5420 5425 5419 5417 5414 5412 5407 5408 5410 5406 5405 5406 5408 5409 5411 5414 5417 5421 5425 5430 5435 5440 5446 5453 5460 5467 5475 5482 5489 5497 5505 5515 5525 5534
5414 5406 5400 5393 5388 5396 5424 5426 5422 5413 5405 5417 5411 5406 5403 5398 5388 5396 5402 5399 5399 5400 5401 5403 5405 5406 5410 5414 5418 5423 5429 5434 5441 5448 5455 5461 5468 5476 5483 5491 5499 5508 5518 5527
5397 5392 5394 5391 5386 5398 5416 5414 5410 5393 5398 5407 5402 5397 5392 5386 5385 5389 5390 5391 5392 5393 5394 5395 5397 5398 5401 5406 5410 5416 5422 5427 5434 5442 5449 5455 5461 5469 5478 5486 5494 5503 5512 5521
5394 5385 5381 5380 5379 5395 5411 5400 5396 5397 5398 5395 5392 5388 5383 5382 5381 5380 5380 5382 5383 5384 5386 5387 5388 5391 5394 5398 5402 5408 5415 5421 5428 5434 5442 5448 5455 5463 5472 5480 5488 5497 5506 5513
5394 5397 5391 5388 5400 5406 5401 5398 5397 5392 5387 5385 5382 5379 5375 5373 5372 5372 5372 5373 5374 5376 5377 5379 5380 5383 5387 5390 5394 5400 5408 5414 5420 5427 5434 5441 5448 5456 5465 5474 5483 5491 5499 5507
5388 5389 5381 5377 5388 5392 5391 5388 5385 5381 5377 5376 5374 5371 5367 5364 5364 5363 5363 5364 5365 5367 5369 5371 5373 5375 5380 5383 5387 5393 5400 5406 5412 5419 5427 5433 5441 5449 5458 5468 5478 5486 5494 5501
5385 5377 5373 5374 5381 5380 5382 5380 5377 5374 5370 5367 5364 5362 5359 5357 5356 5355 5354 5355 5357 5359 5361 5363 5365 5368 5372 5376 5381 5386 5391 5397 5403 5411 5419 5427 5435 5443 5452 5461 5471 5481 5490 5498
5378 5373 5368 5373 5376 5370 5372 5373 5369 5365 5362 5359 5355 5354 5352 5349 5348 5347 5347 5348 5349 5351 5353 5355 5358 5361 5366 5369 5374 5379 5384 5389 5395 5403 5412 5420 5428 5437 5446 5455 5465 5475 5484 5493